Location: Drummondville
(45.8830°N, 72.4830°W)
Time: 20:22:28
(UTC-05:00)

Amateur Radio Satellites - All Passes

Search period start: 12 December 2017 19:52
Search period end: 13 December 2017 19:52
Location: Drummondville, 45.8830°N, 72.4830°W

Satellite Date Start Highest point End Downlink Frequencies (MHz)
Time Altitude Azimuth
XW-2A 12 Dec 19:56:12 19:57:47 13° 269° (W) 19:59:23 145.665 - 145.685
EO-88 12 Dec 20:01:50 20:04:26 19° 66° (ENE) 20:07:03 145.990 - 145.960
Oscar 11 12 Dec 20:13:07 20:17:00 32° 264° (W) 20:20:54 .
DELFI C3 12 Dec 20:21:58 20:25:55 69° 75° (ENE) 20:29:55 145.870
AO-73 12 Dec 20:26:26 20:29:00 16° 269° (W) 20:31:35 145.935
FO-29 12 Dec 20:26:30 20:33:44 80° 104° (ESE) 20:40:01 435.910
TIGRISAT 12 Dec 20:41:33 20:44:18 16° 91° (E) 20:47:05 435.000
UNISAT 6 12 Dec 20:43:55 20:47:02 19° 92° (E) 20:50:09 437.425
BEESAT 3 12 Dec 20:44:11 20:48:10 83° 124° (SE) 20:52:11 437.485
RS-15 12 Dec 20:57:46 21:08:40 36° 21° (NNE) 21:19:04 29.354- 29.394
Max Valier Satellite 12 Dec 21:00:49 21:04:25 59° 260° (W) 21:08:03 145.860
BEESAT 2 12 Dec 21:18:38 21:22:32 55° 121° (ESE) 21:26:32 435.950
STRAND 1 12 Dec 21:31:03 21:32:26 11° 306° (NW) 21:33:48 437.568
EO-88 12 Dec 21:34:32 21:37:51 33° 263° (W) 21:41:12 145.990 - 145.960
PCSat 12 Dec 21:35:48 21:38:50 15° 330° (NNW) 21:41:53 145.827
AO-85 12 Dec 21:36:46 21:39:50 22° 113° (ESE) 21:43:02 145.980
ESTCUBE 1 12 Dec 21:58:38 22:02:57 47° 71° (ENE) 22:07:19 437.505/2401.250
DELFI C3 12 Dec 22:00:03 22:01:07 11° 272° (W) 22:02:11 145.870
PRISM 12 Dec 22:04:02 22:07:52 36° 98° (E) 22:11:39 437.425
VELOX 1 12 Dec 22:09:02 22:10:23 11° 57° (ENE) 22:11:44 145.980
LO-87 12 Dec 22:11:50 22:15:23 85° 78° (ENE) 22:18:57 145.935 - 145.965
FO-29 12 Dec 22:12:30 22:17:52 23° 305° (NW) 22:22:50 435.910
TIGRISAT 12 Dec 22:17:06 22:21:17 52° 288° (WNW) 22:25:33 435.000
UNISAT 6 12 Dec 22:19:50 22:23:57 45° 289° (WNW) 22:28:07 437.425
BEESAT 3 12 Dec 22:23:38 22:26:13 16° 324° (NW) 22:28:49 437.485
QB50P2 12 Dec 22:38:00 22:39:57 13° 89° (E) 22:41:54 145.880/145.840
DUCHIFAT 1 12 Dec 22:47:31 22:48:36 11° 88° (E) 22:49:40 145.980
AIST 2D 12 Dec 22:48:59 22:52:26 44° 99° (E) 22:55:50 435.315
BEESAT 2 12 Dec 22:57:24 23:00:34 22° 321° (NW) 23:03:45 435.950
SPROUT 12 Dec 23:03:20 23:07:28 54° 73° (ENE) 23:11:37 437.525
NANOSAT C BR1 12 Dec 23:10:46 23:14:07 23° 94° (E) 23:17:27 145.865
SO-50 12 Dec 23:11:13 23:15:22 31° 42° (NE) 23:19:33 436.795
RS-15 12 Dec 23:11:20 23:23:21 78° 51° (NE) 23:34:38 29.354- 29.394
DX 1 12 Dec 23:11:37 23:13:01 11° 57° (ENE) 23:14:24 434.975-435.025
AO-85 12 Dec 23:16:13 23:19:58 40° 314° (NW) 23:23:58 145.980
EO-79 12 Dec 23:24:13 23:28:06 35° 97° (E) 23:31:58 145.935-145.965
ESTCUBE 1 12 Dec 23:36:43 23:40:00 20° 268° (W) 23:43:18 437.505/2401.250
PRISM 12 Dec 23:39:45 23:42:56 22° 295° (WNW) 23:46:05 437.425
VELOX 1 12 Dec 23:41:38 23:46:05 86° 72° (ENE) 23:50:34 145.980
POLYITAN 1 12 Dec 23:46:25 23:50:36 61° 102° (ESE) 23:54:47 437.675
50 SAT 13 Dec 00:04:59 00:07:45 28° 70° (ENE) 00:10:32 437.505
Oscar 19 13 Dec 00:06:08 00:08:37 13° 88° (E) 00:11:05 437.125/150
QB50P2 13 Dec 00:11:59 00:16:09 64° 287° (WNW) 00:20:20 145.880/145.840
DUCHIFAT 1 13 Dec 00:20:34 00:24:45 75° 286° (WNW) 00:28:56 145.980
FALCONSAT 3 13 Dec 00:20:39 00:22:54 15° 174° (S) 00:25:09 435.103
AIST 2D 13 Dec 00:23:17 00:25:13 14° 296° (WNW) 00:27:09 435.315
Gurwin Techsat 1B 13 Dec 00:30:22 00:33:45 17° 90° (E) 00:37:06 435.225
UKube-1 13 Dec 00:33:12 00:37:18 43° 70° (ENE) 00:41:24 .
SPROUT 13 Dec 00:41:09 00:43:41 15° 269° (W) 00:46:13 437.525
DX 1 13 Dec 00:44:06 00:48:29 89° 65° (ENE) 00:52:53 434.975-435.025
NANOSAT C BR1 13 Dec 00:46:04 00:49:54 35° 291° (WNW) 00:53:43 145.865
SO-50 13 Dec 00:51:32 00:55:58 43° 241° (WSW) 01:00:26 436.795
EO-79 13 Dec 01:00:19 01:03:41 24° 294° (WNW) 01:07:02 145.935-145.965
AO-85 13 Dec 01:00:53 01:01:36 10° 337° (NNW) 01:02:20 145.980
AO-91 13 Dec 01:08:06 01:11:28 39° 98° (E) 01:14:40 145.960
PCSat 13 Dec 01:09:25 01:11:07 11° 24° (NNE) 01:12:50 145.827
BUGSAT 1 13 Dec 01:09:27 01:13:29 89° 295° (WNW) 01:17:33 437.445
MOZHAYETS 4 13 Dec 01:19:43 01:23:39 30° 67° (ENE) 01:27:37
VELOX 1 13 Dec 01:22:20 01:23:08 10° 273° (W) 01:23:55 145.980
BEESAT 13 Dec 01:22:39 01:26:30 25° 64° (ENE) 01:30:22 436.000
POLYITAN 1 13 Dec 01:23:30 01:25:54 15° 299° (WNW) 01:28:19 437.675
RS-15 13 Dec 01:24:47 01:34:38 34° 256° (WSW) 01:44:07 29.354- 29.394
50 SAT 13 Dec 01:37:44 01:39:45 16° 266° (W) 01:41:48 437.505
Oscar 19 13 Dec 01:43:22 01:48:35 85° 288° (WNW) 01:53:48 437.125/150
ITUPSAT 1 13 Dec 01:48:49 01:53:16 41° 68° (ENE) 01:57:44 437.325
YUBILEINY 13 Dec 01:52:22 01:59:46 32° 82° (E) 02:07:11 435.215
FALCONSAT 3 13 Dec 01:59:11 02:01:13 14° 190° (S) 02:03:15 435.103
Gurwin Techsat 1B 13 Dec 02:08:55 02:14:14 71° 287° (WNW) 02:19:30 435.225
UKube-1 13 Dec 02:10:19 02:13:29 20° 267° (W) 02:16:41 .
M-CUBED/EXP-1 PRIME 13 Dec 02:28:31 02:31:15 16° 94° (E) 02:33:55 437.505
CUBESAT XI-V 13 Dec 02:37:04 02:41:28 43° 70° (ENE) 02:45:55 437.345
AO-91 13 Dec 02:45:39 02:47:36 14° 298° (WNW) 02:49:28 145.960
AO-7 13 Dec 02:48:30 02:56:20 41° 99° (E) 03:04:06 .
PCSat 13 Dec 02:51:08 02:56:10 37° 47° (NE) 03:01:11 145.827
ITAMSAT 1 13 Dec 02:51:35 02:55:53 26° 94° (E) 03:00:09 435.822/435.867
MOZHAYETS 4 13 Dec 02:56:42 03:00:45 32° 264° (W) 03:04:51
BEESAT 13 Dec 02:59:33 03:04:03 42° 261° (W) 03:08:34 436.000
BEESAT 3 13 Dec 03:21:54 03:24:30 17° 36° (NE) 03:27:05 437.485
KKS-1 13 Dec 03:23:47 03:27:36 29° 66° (ENE) 03:31:27 437.445
Oscar 19 13 Dec 03:24:32 03:27:08 14° 304° (NW) 03:29:43 437.125/150
ITUPSAT 1 13 Dec 03:27:23 03:31:14 24° 266° (W) 03:35:06 437.325
YUBILEINY 13 Dec 03:47:14 03:55:57 64° 283° (WNW) 04:04:47 435.215
Gurwin Techsat 1B 13 Dec 03:51:16 03:53:14 12° 306° (NW) 03:55:11 435.225
BEESAT 2 13 Dec 03:57:18 03:59:25 14° 32° (NNE) 04:01:30 435.950
M-CUBED/EXP-1 PRIME 13 Dec 04:01:30 04:06:03 63° 293° (WNW) 04:10:21 437.505
STARS 13 Dec 04:12:03 04:16:04 35° 68° (ENE) 04:20:05 437.465
CUBESAT XI-V 13 Dec 04:15:23 04:19:01 22° 268° (W) 04:22:41 437.345
AO-85 13 Dec 04:24:45 04:26:51 13° 28° (NNE) 04:29:02 145.980
ITAMSAT 1 13 Dec 04:30:36 04:35:32 45° 292° (WNW) 04:40:25 435.822/435.867
PCSat 13 Dec 04:34:34 04:39:36 40° 247° (WSW) 04:44:37 145.827
AO-7 13 Dec 04:41:15 04:49:15 52° 298° (WNW) 04:57:15 .
DOVE 4 13 Dec 04:46:17 04:50:52 66° 100° (E) 04:55:11 437.250
XW-2F 13 Dec 04:54:56 04:56:42 13° 90° (E) 04:58:29 145.980 - 146.000
BEESAT 3 13 Dec 04:58:34 05:02:32 78° 236° (SW) 05:06:24 437.485
FO-29 13 Dec 04:59:36 05:02:59 13° 46° (NE) 05:06:21 435.910
KKS-1 13 Dec 05:00:04 05:04:05 32° 263° (W) 05:08:05 437.445
XW-2C 13 Dec 05:07:31 05:10:22 19° 93° (E) 05:13:11 145.795 - 145.815
HO-68 13 Dec 05:25:00 05:29:06 16° 87° (E) 05:33:10 435.675
STRAND 1 13 Dec 05:29:03 05:33:29 31° 65° (ENE) 05:37:56 437.568
BEESAT 2 13 Dec 05:33:49 05:37:52 71° 53° (NE) 05:41:51 435.950
M-CUBED/EXP-1 PRIME 13 Dec 05:39:13 05:39:26 10° 312° (NW) 05:39:40 437.505
LilacSat-2 13 Dec 05:40:51 05:44:39 49° 99° (E) 05:48:25 437.200
CUTE-I 13 Dec 05:42:50 05:47:49 38° 97° (E) 05:52:45 437.470
STARS 13 Dec 05:48:51 05:52:28 25° 265° (W) 05:56:05 437.465
YUBILEINY 13 Dec 05:50:06 05:54:53 15° 308° (NW) 05:59:42 435.215
XW-2D 13 Dec 05:57:43 06:01:36 76° 102° (ESE) 06:05:26 145.860 - 145.880
AO-85 13 Dec 06:03:46 06:08:19 48° 48° (NE) 06:13:13 145.980
NUDT-PHONESAT 13 Dec 06:10:23 06:14:09 70° 102° (ESE) 06:17:53 437.300
KAITUO 1B 13 Dec 06:10:48 06:14:37 75° 102° (ESE) 06:18:24 145.475/437.950
XW-2B 13 Dec 06:13:34 06:17:25 74° 285° (WNW) 06:21:15 145.730 - 145.750
SEEDS 13 Dec 06:14:13 06:17:09 18° 91° (E) 06:20:04 437.485
DOVE 4 13 Dec 06:25:18 06:27:57 15° 301° (WNW) 06:30:31 437.250
XW-2F 13 Dec 06:27:22 06:31:07 53° 287° (WNW) 06:34:51 145.980 - 146.000
CUTE 1.7 + AOD 2 13 Dec 06:32:43 06:36:52 44° 98° (E) 06:40:58 437.475
AO-7 13 Dec 06:35:56 06:40:08 15° 321° (NW) 06:44:22 .
FO-29 13 Dec 06:38:52 06:46:17 51° 66° (ENE) 06:53:46 435.910
AAUSAT CUBESAT 2 13 Dec 06:39:12 06:41:30 14° 90° (E) 06:43:46 437.432
XW-2C 13 Dec 06:41:06 06:44:38 35° 290° (WNW) 06:48:09 145.795 - 145.815
NO-84 13 Dec 06:52:51 06:55:41 35° 135° (SE) 06:58:44 435.350 FM
CUBEBUG 2 13 Dec 07:01:52 07:06:02 54° 100° (E) 07:10:17 437.445
UWE-3 13 Dec 07:05:27 07:09:23 34° 97° (E) 07:13:23 435.000/436.395/437.385
STRAND 1 13 Dec 07:07:48 07:12:33 38° 263° (W) 07:17:19 437.568
HO-68 13 Dec 07:10:41 07:17:54 82° 106° (ESE) 07:25:04 435.675
XW-2A 13 Dec 07:13:12 07:16:15 29° 96° (E) 07:19:18 145.665 - 145.685
BEESAT 2 13 Dec 07:13:14 07:15:01 13° 250° (WSW) 07:16:47 435.950
LilacSat-2 13 Dec 07:16:13 07:18:31 15° 297° (WNW) 07:20:50 437.200
CUTE-I 13 Dec 07:23:04 07:27:46 32° 295° (WNW) 07:32:25 437.470
O/OREOS (USA 219) 13 Dec 07:34:07 07:37:20 19° 101° (E) 07:40:32 437.305
XW-2D 13 Dec 07:34:15 07:35:10 11° 300° (WNW) 07:36:04 145.860 - 145.880
ZACube-1 13 Dec 07:34:27 07:38:30 37° 97° (E) 07:42:36 437.345
TIGRISAT 13 Dec 07:42:37 07:45:42 20° 64° (ENE) 07:48:46 435.000
AO-85 13 Dec 07:44:30 07:48:35 28° 245° (WSW) 07:52:53 145.980
UNISAT 6 13 Dec 07:45:06 07:48:26 22° 65° (ENE) 07:51:46 437.425
NUDT-PHONESAT 13 Dec 07:46:24 07:47:26 11° 299° (WNW) 07:48:27 437.300
KAITUO 1B 13 Dec 07:47:12 07:47:59 11° 300° (WNW) 07:48:47 145.475/437.950
SEEDS 13 Dec 07:48:59 07:53:04 46° 289° (WNW) 07:57:07 437.485
Oscar 11 13 Dec 07:57:17 08:01:22 38° 97° (E) 08:05:25 .
CUTE 1.7 + AOD 2 13 Dec 08:09:15 08:12:23 20° 296° (WNW) 08:15:30 437.475
AO-73 13 Dec 08:09:21 08:13:41 77° 102° (ESE) 08:18:06 145.935
AAUSAT CUBESAT 2 13 Dec 08:13:11 08:17:17 56° 287° (WNW) 08:21:21 437.432
FO-29 13 Dec 08:24:11 08:31:21 41° 265° (W) 08:38:42 435.910
NO-84 13 Dec 08:29:57 08:32:55 34° 336° (NNW) 08:36:08 435.350 FM
Max Valier Satellite 13 Dec 08:30:15 08:31:07 11° 89° (E) 08:31:59 145.860
CUBEBUG 2 13 Dec 08:39:36 08:42:16 16° 297° (WNW) 08:44:58 437.445
UWE-3 13 Dec 08:42:12 08:45:42 25° 293° (WNW) 08:49:16 435.000/436.395/437.385
XW-2A 13 Dec 08:46:19 08:48:45 18° 293° (WNW) 08:51:10 145.665 - 145.685
PRISM 13 Dec 08:55:07 08:58:56 36° 69° (ENE) 09:02:46 437.425
HO-68 13 Dec 08:59:26 09:04:52 24° 306° (NW) 09:10:17 435.675
EO-88 13 Dec 09:00:57 09:03:24 17° 92° (E) 09:05:49 145.990 - 145.960
ZACube-1 13 Dec 09:11:09 09:14:35 24° 294° (WNW) 09:18:05 437.345
O/OREOS (USA 219) 13 Dec 09:11:53 09:16:21 51° 299° (WNW) 09:20:50 437.305
TIGRISAT 13 Dec 09:17:59 09:22:06 44° 261° (W) 09:26:12 435.000
UNISAT 6 13 Dec 09:20:56 09:24:58 38° 263° (W) 09:28:58 437.425
AIST 2D 13 Dec 09:25:30 09:28:20 23° 68° (ENE) 09:31:11 435.315
DELFI C3 13 Dec 09:30:46 09:34:44 81° 101° (ESE) 09:38:40 145.870
QB50P2 13 Dec 09:32:59 09:35:15 14° 61° (ENE) 09:37:31 145.880/145.840
Oscar 11 13 Dec 09:33:50 09:37:18 24° 294° (WNW) 09:40:46 .
DUCHIFAT 1 13 Dec 09:41:30 09:43:11 12° 60° (ENE) 09:44:52 145.980
AO-73 13 Dec 09:47:23 09:49:21 13° 300° (WNW) 09:51:19 145.935
Max Valier Satellite 13 Dec 10:01:38 10:05:19 61° 285° (WNW) 10:09:00 145.860
NANOSAT C BR1 13 Dec 10:05:02 10:08:22 23° 66° (ENE) 10:11:42 145.865
NO-84 13 Dec 10:08:27 10:10:59 19° 358° (N) 10:13:38 435.350 FM
EO-79 13 Dec 10:18:38 10:22:27 35° 69° (ENE) 10:26:18 145.935-145.965
PRISM 13 Dec 10:31:03 10:34:18 22° 266° (W) 10:37:33 437.425
EO-88 13 Dec 10:33:46 10:37:10 36° 289° (WNW) 10:40:33 145.990 - 145.960
POLYITAN 1 13 Dec 10:40:49 10:44:57 61° 73° (ENE) 10:49:05 437.675
AIST 2D 13 Dec 10:58:32 11:01:26 24° 266° (W) 11:04:21 435.315
QB50P2 13 Dec 11:06:22 11:10:32 64° 259° (WSW) 11:14:43 145.880/145.840
DELFI C3 13 Dec 11:08:03 11:08:51 10° 300° (WNW) 11:09:37 145.870
LO-87 13 Dec 11:09:14 11:12:46 75° 104° (ESE) 11:16:18 145.935 - 145.965
DUCHIFAT 1 13 Dec 11:14:06 11:18:15 76° 257° (WSW) 11:22:25 145.980
nSIGHT-1 13 Dec 11:14:19 11:16:44 20° 137° (SE) 11:19:09 .
Oscar 19 13 Dec 11:24:34 11:28:46 26° 63° (ENE) 11:33:00 437.125/150
ESTCUBE 1 13 Dec 11:24:55 11:29:30 75° 103° (ESE) 11:34:02 437.505/2401.250
VELOX 1 13 Dec 11:30:44 11:32:54 13° 89° (E) 11:35:04 145.980
NANOSAT C BR1 13 Dec 11:40:04 11:43:53 34° 263° (W) 11:47:45 145.865
NO-84 13 Dec 11:46:00 11:49:07 27° 19° (NNE) 11:52:27 435.350 FM
ISS 13 Dec 11:49:51 11:52:48 31° 141° (SE) 11:55:46 437.550
Gurwin Techsat 1B 13 Dec 11:53:16 11:58:02 35° 65° (ENE) 12:02:49 435.225
EO-79 13 Dec 11:55:00 11:58:18 22° 266° (W) 12:01:37 145.935-145.965
YUBILEINY 13 Dec 11:58:54 12:04:37 18° 55° (NE) 12:10:19 435.215
BUGSAT 1 13 Dec 12:00:56 12:04:59 86° 76° (ENE) 12:09:02 437.445
AO-7 13 Dec 12:01:18 12:06:42 19° 44° (NE) 12:12:05 .
AO-91 13 Dec 12:06:03 12:10:51 53° 72° (ENE) 12:15:12 145.960
POLYITAN 1 13 Dec 12:19:05 12:21:07 13° 270° (W) 12:23:09 437.675
SPROUT 13 Dec 12:21:54 12:26:08 75° 101° (ESE) 12:30:23 437.525
DX 1 13 Dec 12:31:36 12:33:30 13° 89° (E) 12:35:23 434.975-435.025
nSIGHT-1 13 Dec 12:49:26 12:52:39 70° 335° (NNW) 12:55:53 .
50 SAT 13 Dec 12:50:56 12:52:59 16° 94° (E) 12:55:01 437.505
Oscar 19 13 Dec 13:02:55 13:07:50 46° 261° (W) 13:12:49 437.125/150
ESTCUBE 1 13 Dec 13:03:16 13:05:42 14° 301° (WNW) 13:08:08 437.505/2401.250
VELOX 1 13 Dec 13:05:24 13:09:48 66° 287° (WNW) 13:14:09 145.980
M-CUBED/EXP-1 PRIME 13 Dec 13:14:53 13:18:39 29° 60° (ENE) 13:22:34 437.505
NO-84 13 Dec 13:22:58 13:26:45 85° 216° (SW) 13:30:48 435.350 FM
ISS 13 Dec 13:25:58 13:29:11 50° 339° (NNW) 13:32:25 437.550
Gurwin Techsat 1B 13 Dec 13:33:05 13:37:56 35° 263° (W) 13:42:49 435.225
RS-15 13 Dec 13:37:20 13:48:12 39° 107° (ESE) 13:58:59 29.354- 29.394
AO-91 13 Dec 13:44:01 13:47:28 19° 267° (W) 13:50:45 145.960
AO-7 13 Dec 13:49:49 13:58:01 69° 66° (ENE) 14:06:17 .
UKube-1 13 Dec 13:53:14 13:57:29 55° 101° (E) 14:01:42 .
YUBILEINY 13 Dec 13:54:19 14:03:12 75° 79° (E) 14:11:58 435.215
SPROUT 13 Dec 13:59:34 14:01:26 13° 300° (WNW) 14:03:20 437.525
DX 1 13 Dec 14:05:48 14:10:09 69° 287° (WNW) 14:14:27 434.975-435.025
ITAMSAT 1 13 Dec 14:11:34 14:16:37 51° 69° (ENE) 14:21:39 435.822/435.867
DOVE 4 13 Dec 14:18:21 14:21:00 14° 58° (ENE) 14:23:36 437.250
50 SAT 13 Dec 14:22:14 14:24:58 27° 290° (WNW) 14:27:41 437.505
nSIGHT-1 13 Dec 14:26:21 14:29:13 29° 354° (N) 14:32:06 .
MOZHAYETS 4 13 Dec 14:48:24 14:52:53 48° 99° (E) 14:57:21
M-CUBED/EXP-1 PRIME 13 Dec 14:48:54 14:52:52 35° 259° (WSW) 14:57:03 437.505
BEESAT 13 Dec 14:56:48 15:01:17 39° 98° (E) 15:05:44 436.000
NO-84 13 Dec 15:01:24 15:03:36 15° 233° (SW) 15:05:52 435.350 FM
ISS 13 Dec 15:03:13 15:06:09 28° 359° (N) 15:09:04 437.550
SO-50 13 Dec 15:07:58 15:11:57 33° 117° (ESE) 15:15:59 436.795
ITUPSAT 1 13 Dec 15:24:00 15:28:46 70° 103° (ESE) 15:33:32 437.325
UKube-1 13 Dec 15:30:17 15:33:05 17° 299° (WNW) 15:35:52 .
CUTE-I 13 Dec 15:30:31 15:33:02 14° 55° (NE) 15:35:33 437.470
AO-7 13 Dec 15:44:22 15:51:23 30° 266° (W) 15:58:28 .
RS-15 13 Dec 15:47:34 15:59:55 74° 310° (NW) 16:12:08 29.354- 29.394
XW-2C 13 Dec 15:51:45 15:53:49 14° 63° (ENE) 15:55:55 145.795 - 145.815
YUBILEINY 13 Dec 15:52:16 15:59:05 26° 281° (W) 16:05:54 435.215
ITAMSAT 1 13 Dec 15:52:16 15:56:20 23° 267° (W) 16:00:27 435.822/435.867
DOVE 4 13 Dec 15:52:39 15:57:57 86° 76° (ENE) 16:03:07 437.250
HO-68 13 Dec 15:57:10 16:01:45 18° 50° (NE) 16:06:20 435.675
nSIGHT-1 13 Dec 16:02:57 16:05:58 36° 14° (NNE) 16:08:59 .
CUBESAT XI-V 13 Dec 16:07:54 16:12:39 77° 104° (ESE) 16:17:21 437.345
LilacSat-2 13 Dec 16:24:49 16:28:16 34° 70° (ENE) 16:31:46 437.200
MOZHAYETS 4 13 Dec 16:26:16 16:29:42 21° 297° (WNW) 16:33:09
BEESAT 13 Dec 16:34:55 16:38:52 27° 296° (WNW) 16:42:50 436.000
ISS 13 Dec 16:39:55 16:43:07 46° 19° (NNE) 16:46:18 437.550
XW-2D 13 Dec 16:40:45 16:44:25 49° 73° (ENE) 16:48:07 145.860 - 145.880
KKS-1 13 Dec 16:47:57 16:52:06 38° 98° (E) 16:56:14 437.445
SO-50 13 Dec 16:48:13 16:52:21 36° 316° (NW) 16:56:34 436.795
NUDT-PHONESAT 13 Dec 16:51:14 16:54:43 42° 72° (ENE) 16:58:15 437.300
KAITUO 1B 13 Dec 16:52:29 16:56:04 46° 72° (ENE) 16:59:42 145.475/437.950
XW-2B 13 Dec 16:56:28 17:00:13 73° 75° (ENE) 17:04:03 145.730 - 145.750
ITUPSAT 1 13 Dec 17:03:07 17:06:03 16° 301° (WNW) 17:08:59 437.325
CUTE-I 13 Dec 17:06:51 17:12:13 79° 73° (ENE) 17:17:37 437.470
SEEDS 13 Dec 17:08:18 17:11:08 18° 63° (ENE) 17:13:59 437.485
XW-2F 13 Dec 17:09:43 17:13:29 83° 256° (WSW) 17:17:19 145.980 - 146.000
XW-2C 13 Dec 17:23:54 17:27:35 51° 260° (W) 17:31:19 145.795 - 145.815
CUTE 1.7 + AOD 2 13 Dec 17:27:18 17:31:18 42° 71° (ENE) 17:35:21 437.475
AAUSAT CUBESAT 2 13 Dec 17:31:51 17:34:04 14° 61° (ENE) 17:36:17 437.432
DOVE 4 13 Dec 17:33:37 17:36:11 14° 273° (W) 17:38:44 437.250
STARS 13 Dec 17:34:35 17:38:49 47° 100° (E) 17:43:01 437.465
PCSat 13 Dec 17:36:54 17:40:28 18° 105° (ESE) 17:44:04 145.827
nSIGHT-1 13 Dec 17:39:08 17:42:18 57° 213° (SSW) 17:45:28 .
O/OREOS (USA 219) 13 Dec 17:40:12 17:44:39 54° 62° (ENE) 17:49:02 437.305
HO-68 13 Dec 17:41:12 17:48:23 77° 70° (ENE) 17:55:35 435.675
CUBESAT XI-V 13 Dec 17:46:48 17:49:24 15° 301° (WNW) 17:51:59 437.345
XW-2A 13 Dec 17:47:11 17:49:14 15° 65° (ENE) 17:51:17 145.665 - 145.685
LilacSat-2 13 Dec 17:59:49 18:02:38 20° 267° (W) 18:05:29 437.200
CUBEBUG 2 13 Dec 18:02:04 18:06:13 59° 73° (ENE) 18:10:19 437.445
RS-15 13 Dec 18:03:53 18:14:53 36° 340° (NNW) 18:25:36 29.354- 29.394
UWE-3 13 Dec 18:04:45 18:08:32 35° 69° (ENE) 18:12:19 435.000/436.395/437.385
ISS 13 Dec 18:16:30 18:19:34 36° 218° (SW) 18:22:36 437.550
XW-2D 13 Dec 18:16:55 18:18:52 14° 270° (W) 18:20:49 145.860 - 145.880
KKS-1 13 Dec 18:24:54 18:28:28 24° 296° (WNW) 18:32:00 437.445
NUDT-PHONESAT 13 Dec 18:26:36 18:28:46 15° 269° (W) 18:30:56 437.300
KAITUO 1B 13 Dec 18:28:17 18:30:18 14° 270° (W) 18:32:20 145.475/437.950
ZACube-1 13 Dec 18:32:32 18:36:20 37° 70° (ENE) 18:40:10 437.345
SO-50 13 Dec 18:33:04 18:34:09 11° 339° (NNW) 18:35:14 436.795
SEEDS 13 Dec 18:42:20 18:46:25 50° 260° (W) 18:50:35 437.485
CUTE-I 13 Dec 18:49:48 18:52:53 15° 271° (W) 18:55:57 437.470
Oscar 11 13 Dec 18:54:07 18:58:06 38° 70° (ENE) 19:02:08 .
CUTE 1.7 + AOD 2 13 Dec 19:04:13 19:07:19 20° 268° (W) 19:10:28 437.475
AAUSAT CUBESAT 2 13 Dec 19:04:51 19:08:59 64° 259° (WSW) 19:13:11 437.432
AO-73 13 Dec 19:06:54 19:11:01 77° 74° (ENE) 19:15:10 145.935
STARS 13 Dec 19:11:41 19:14:49 20° 297° (WNW) 19:17:57 437.465
STRAND 1 13 Dec 19:15:13 19:20:16 61° 101° (ESE) 19:25:18 437.568
PCSat 13 Dec 19:17:51 19:23:15 74° 304° (NW) 19:28:43 145.827
XW-2A 13 Dec 19:18:34 19:21:39 34° 263° (W) 19:24:46 145.665 - 145.685
O/OREOS (USA 219) 13 Dec 19:20:42 19:23:36 17° 260° (W) 19:26:29 437.305
HO-68 13 Dec 19:31:24 19:36:48 23° 269° (W) 19:42:15 435.675
FO-29 13 Dec 19:32:01 19:38:17 34° 92° (E) 19:43:53 435.910
CUBEBUG 2 13 Dec 19:41:07 19:43:12 13° 270° (W) 19:45:18 437.445
UWE-3 13 Dec 19:41:52 19:45:06 22° 267° (W) 19:48:19 435.000/436.395/437.385
EO-88 13 Dec 19:42:02 19:43:16 11° 62° (ENE) 19:44:30 145.990 - 145.960
